RYR59SQ LEPA-EDDG

Flight info

Callsign RYR59SQ
Flight time 2h 22m
Altitude 38000
Route GALAT DCT RODRA DCT VNV DCT ANTON DCT BISES DCT SADUR DCT CAVES DCT LATRO DCT OLOXO DCT OKABI DCT TOU DCT ADABI DCT BOKNO DCT DIBES DCT VIQAQ DCT TSU DCT OQQAL DCT RANUX/N0446F370 DCT VALEK DCT LUTAX DCT DIK T856 DEPOK/N0381F230 T856 QATJA N853 HMM HMM1A
Aircraft A320/M-SDE3FGHIRWY/LB1

Departure

Time 2026-04-20 19:31
Airport Palma de Mallorca Airport (LEPA)

Arrival

Time 2026-04-20 21:54
Airport Münster Osnabrück Airport (EDDG)
Time Latitude Longitude Altitude Speed Heading
2026-04-20 19:06 39.55043 2.73541 31 ft 0 kts 166°
2026-04-20 19:20 39.55044 2.73541 31 ft 0 kts 166°
2026-04-20 19:21 39.55058 2.73536 31 ft 2 kts 166°
2026-04-20 19:21 39.55072 2.73532 31 ft 1 kts 166°
2026-04-20 19:21 39.55082 2.73528 31 ft 2 kts 139°
2026-04-20 19:21 39.55089 2.73511 31 ft 2 kts 89°
2026-04-20 19:22 39.55087 2.73499 30 ft 1 kts 59°
2026-04-20 19:22 39.55083 2.73492 30 ft 0 kts 58°
2026-04-20 19:26 39.55097 2.73522 30 ft 7 kts 59°
2026-04-20 19:27 39.55125 2.73582 31 ft 7 kts 59°
2026-04-20 19:27 39.55154 2.73644 31 ft 7 kts 59°
2026-04-20 19:27 39.55179 2.73708 32 ft 6 kts 82°
2026-04-20 19:27 39.55170 2.73747 32 ft 5 kts 111°
2026-04-20 19:28 39.55184 2.73815 33 ft 5 kts 33°
2026-04-20 19:28 39.55242 2.73798 32 ft 11 kts 331°
2026-04-20 19:28 39.55324 2.73736 30 ft 14 kts 328°
2026-04-20 19:28 39.55421 2.73657 28 ft 17 kts 329°
2026-04-20 19:29 39.55533 2.73569 27 ft 19 kts 328°
2026-04-20 19:29 39.55650 2.73514 25 ft 16 kts 34°
2026-04-20 19:29 39.55719 2.73643 25 ft 17 kts 59°
2026-04-20 19:29 39.55787 2.73786 25 ft 19 kts 59°
2026-04-20 19:30 39.55866 2.73906 25 ft 13 kts 360°
2026-04-20 19:30 39.55959 2.73849 24 ft 15 kts 328°
2026-04-20 19:30 39.55980 2.73748 24 ft 0 kts 242°
2026-04-20 19:30 39.55953 2.73687 24 ft 38 kts 240°
2026-04-20 19:31 39.55636 2.73012 25 ft 131 kts 239°
2026-04-20 19:31 39.55040 2.71808 460 ft 165 kts 235°
2026-04-20 19:31 39.54274 2.70631 1107 ft 181 kts 229°
2026-04-20 19:31 39.53481 2.69197 1636 ft 206 kts 236°
2026-04-20 19:32 39.52647 2.67537 2363 ft 223 kts 236°
2026-04-20 19:32 39.51809 2.65851 3405 ft 223 kts 237°
2026-04-20 19:32 39.50971 2.64154 4386 ft 225 kts 237°
2026-04-20 19:32 39.50144 2.62469 5289 ft 226 kts 237°
2026-04-20 19:33 39.49295 2.60733 6189 ft 229 kts 238°
2026-04-20 19:33 39.48429 2.58955 7068 ft 233 kts 238°
2026-04-20 19:33 39.47555 2.57159 7911 ft 238 kts 238°
2026-04-20 19:33 39.46665 2.55324 8761 ft 242 kts 239°
2026-04-20 19:34 39.45761 2.53460 9584 ft 246 kts 239°
2026-04-20 19:34 39.45061 2.51419 10329 ft 252 kts 263°
2026-04-20 19:34 39.45181 2.49074 10785 ft 270 kts 290°
2026-04-20 19:34 39.46233 2.46914 11183 ft 290 kts 317°
2026-04-20 19:35 39.47961 2.45331 11589 ft 310 kts 327°
2026-04-20 19:35 39.49865 2.43778 12019 ft 326 kts 327°
2026-04-20 19:35 39.51816 2.42179 12690 ft 332 kts 327°
2026-04-20 19:35 39.53797 2.40551 13414 ft 335 kts 326°
2026-04-20 19:36 39.55820 2.38945 14145 ft 338 kts 329°
2026-04-20 19:36 39.57877 2.37422 14832 ft 341 kts 328°
2026-04-20 19:36 39.59969 2.35863 15505 ft 343 kts 328°
2026-04-20 19:36 39.62081 2.34286 16145 ft 347 kts 328°
2026-04-20 19:37 39.64199 2.32704 16755 ft 350 kts 328°
2026-04-20 19:37 39.66352 2.31095 17379 ft 353 kts 327°
2026-04-20 19:37 39.68504 2.29486 17973 ft 356 kts 327°
2026-04-20 19:37 39.70677 2.27860 18542 ft 359 kts 328°
2026-04-20 19:38 39.72884 2.26207 19111 ft 362 kts 328°
2026-04-20 19:38 39.75093 2.24552 19694 ft 364 kts 328°
2026-04-20 19:38 39.77325 2.22878 20243 ft 367 kts 328°
2026-04-20 19:38 39.79577 2.21188 20766 ft 369 kts 328°
2026-04-20 19:39 39.81819 2.19504 21288 ft 372 kts 328°
2026-04-20 19:39 39.84118 2.17776 21794 ft 374 kts 328°
2026-04-20 19:39 39.86402 2.16058 22283 ft 377 kts 328°
2026-04-20 19:39 39.88695 2.14332 22789 ft 379 kts 328°
2026-04-20 19:40 39.91031 2.12573 23282 ft 381 kts 328°
2026-04-20 19:40 39.93354 2.10822 23708 ft 382 kts 328°
2026-04-20 19:40 39.95659 2.09082 23894 ft 381 kts 328°
2026-04-20 19:40 39.97999 2.07315 23925 ft 381 kts 328°
2026-04-20 19:41 40.00317 2.05564 23961 ft 380 kts 328°
2026-04-20 19:41 40.02639 2.03807 24222 ft 384 kts 328°
2026-04-20 19:41 40.05004 2.02016 24639 ft 388 kts 328°
2026-04-20 19:41 40.07374 2.00221 25086 ft 389 kts 328°
2026-04-20 19:42 40.09761 1.98412 25538 ft 391 kts 328°
2026-04-20 19:42 40.12164 1.96588 26003 ft 392 kts 328°
2026-04-20 19:42 40.14588 1.94833 26402 ft 396 kts 333°
2026-04-20 19:42 40.17245 1.93686 26793 ft 402 kts 345°
2026-04-20 19:43 40.20056 1.93015 27175 ft 405 kts 347°
2026-04-20 19:43 40.22848 1.92373 27556 ft 407 kts 347°
2026-04-20 19:43 40.25681 1.91717 27940 ft 409 kts 346°
2026-04-20 19:43 40.28540 1.91053 28298 ft 411 kts 346°
2026-04-20 19:44 40.31411 1.90386 28640 ft 413 kts 346°
2026-04-20 19:44 40.34285 1.89717 29018 ft 414 kts 346°
2026-04-20 19:44 40.37162 1.89046 29377 ft 415 kts 346°
2026-04-20 19:44 40.40038 1.88375 29674 ft 418 kts 346°
2026-04-20 19:45 40.42964 1.87692 30022 ft 419 kts 346°
2026-04-20 19:45 40.45890 1.87008 30340 ft 421 kts 346°
2026-04-20 19:45 40.48813 1.86325 30611 ft 424 kts 346°
2026-04-20 19:45 40.51734 1.85641 30917 ft 425 kts 346°
2026-04-20 19:46 40.54712 1.84943 31180 ft 428 kts 346°
2026-04-20 19:46 40.57673 1.84249 31445 ft 430 kts 346°
2026-04-20 19:46 40.60672 1.83545 31718 ft 431 kts 346°
2026-04-20 19:46 40.63664 1.82843 31995 ft 432 kts 346°
2026-04-20 19:47 40.66687 1.82132 32219 ft 435 kts 346°
2026-04-20 19:47 40.69730 1.81416 32434 ft 437 kts 346°
2026-04-20 19:47 40.72744 1.80706 32749 ft 436 kts 346°
2026-04-20 19:47 40.75771 1.79994 33111 ft 435 kts 346°
2026-04-20 19:48 40.78764 1.79288 33453 ft 433 kts 346°
2026-04-20 19:48 40.81785 1.78574 33769 ft 433 kts 346°
2026-04-20 19:48 40.84809 1.77859 34080 ft 432 kts 346°
2026-04-20 19:48 40.87780 1.77156 34328 ft 433 kts 346°
2026-04-20 19:49 40.90788 1.76444 34599 ft 432 kts 346°
2026-04-20 19:49 40.93800 1.75730 34841 ft 432 kts 346°
2026-04-20 19:49 40.96785 1.75022 35082 ft 431 kts 346°
2026-04-20 19:49 40.99770 1.74313 35330 ft 430 kts 346°
2026-04-20 19:50 41.02748 1.73605 35557 ft 430 kts 346°
2026-04-20 19:50 41.05753 1.72951 35743 ft 432 kts 348°
2026-04-20 19:50 41.08761 1.72482 35968 ft 432 kts 349°
2026-04-20 19:50 41.11781 1.72020 36215 ft 430 kts 349°
2026-04-20 19:51 41.14810 1.71555 36398 ft 431 kts 349°
2026-04-20 19:51 41.17829 1.71091 36620 ft 431 kts 349°
2026-04-20 19:51 41.20846 1.70627 36877 ft 430 kts 349°
2026-04-20 19:51 41.23859 1.70164 37172 ft 429 kts 349°
2026-04-20 19:52 41.26846 1.69704 37364 ft 430 kts 349°
2026-04-20 19:52 41.29872 1.69233 37610 ft 429 kts 349°
2026-04-20 19:52 41.32865 1.68767 37829 ft 429 kts 349°
2026-04-20 19:52 41.35876 1.68300 38078 ft 428 kts 349°
2026-04-20 19:53 41.38869 1.67836 38190 ft 429 kts 349°
2026-04-20 19:53 41.44908 1.66898 38223 ft 428 kts 349°
2026-04-20 19:54 41.50875 1.65968 38233 ft 429 kts 349°
2026-04-20 19:54 41.56906 1.65023 38245 ft 428 kts 349°
2026-04-20 19:55 41.62873 1.64086 38248 ft 428 kts 349°
2026-04-20 19:55 41.68890 1.63139 38251 ft 428 kts 349°
2026-04-20 19:56 41.73864 1.62355 38257 ft 428 kts 349°
2026-04-20 19:56 41.80889 1.61248 38275 ft 428 kts 349°
2026-04-20 19:57 41.86846 1.60308 38280 ft 428 kts 349°
2026-04-20 19:57 41.92847 1.59360 38278 ft 428 kts 349°
2026-04-20 19:57 41.95860 1.58883 38460 ft 429 kts 349°
2026-04-20 19:58 41.98857 1.58408 38114 ft 430 kts 349°
2026-04-20 19:58 42.04869 1.57455 37948 ft 426 kts 350°
2026-04-20 19:58 42.07817 1.56988 38323 ft 422 kts 349°
2026-04-20 19:59 42.10765 1.56518 38415 ft 424 kts 349°
2026-04-20 19:59 42.13715 1.56048 38246 ft 426 kts 349°
2026-04-20 19:59 42.16709 1.55571 38238 ft 426 kts 349°
2026-04-20 20:00 42.22687 1.54616 38248 ft 428 kts 349°
2026-04-20 20:00 42.28703 1.53654 38260 ft 429 kts 349°
2026-04-20 20:01 42.34705 1.52693 38273 ft 431 kts 349°
2026-04-20 20:01 42.40753 1.51723 38289 ft 432 kts 349°
2026-04-20 20:02 42.46823 1.50747 38294 ft 433 kts 349°
2026-04-20 20:02 42.52881 1.49772 38292 ft 434 kts 349°
2026-04-20 20:03 42.58971 1.48791 38292 ft 435 kts 349°
2026-04-20 20:03 42.65085 1.47807 38280 ft 435 kts 349°
2026-04-20 20:04 42.71207 1.46824 38274 ft 436 kts 349°
2026-04-20 20:04 42.77297 1.45844 38272 ft 437 kts 349°
2026-04-20 20:05 42.83446 1.44852 38266 ft 437 kts 349°
2026-04-20 20:05 42.89555 1.43863 38250 ft 437 kts 349°
2026-04-20 20:06 42.95656 1.42875 38231 ft 437 kts 349°
2026-04-20 20:06 43.01780 1.41881 38209 ft 438 kts 349°
2026-04-20 20:07 43.07928 1.40881 38202 ft 438 kts 349°
2026-04-20 20:07 43.14049 1.39883 38202 ft 438 kts 349°
2026-04-20 20:08 43.20197 1.38878 38199 ft 438 kts 349°
2026-04-20 20:08 43.26341 1.37873 38190 ft 437 kts 349°
2026-04-20 20:09 43.32435 1.36873 38187 ft 437 kts 349°
2026-04-20 20:09 43.38540 1.35867 38179 ft 437 kts 349°
2026-04-20 20:10 43.44685 1.34858 38177 ft 436 kts 348°
2026-04-20 20:10 43.50764 1.33858 38174 ft 436 kts 348°
2026-04-20 20:11 43.56906 1.32842 38181 ft 436 kts 348°
2026-04-20 20:11 43.62975 1.31905 38180 ft 436 kts 348°
2026-04-20 20:12 43.69072 1.30776 38177 ft 434 kts 345°
2026-04-20 20:12 43.75055 1.29208 38170 ft 433 kts 344°
2026-04-20 20:13 43.84037 1.26880 38162 ft 432 kts 345°
2026-04-20 20:13 43.90064 1.25320 38154 ft 432 kts 344°
2026-04-20 20:14 43.96046 1.23768 38154 ft 431 kts 344°
2026-04-20 20:14 44.02032 1.22213 38149 ft 431 kts 344°
2026-04-20 20:15 44.08018 1.20655 38151 ft 431 kts 344°
2026-04-20 20:15 44.13991 1.19098 38154 ft 431 kts 344°
2026-04-20 20:16 44.19985 1.17531 38149 ft 430 kts 344°
2026-04-20 20:16 44.25980 1.15961 38149 ft 430 kts 344°
2026-04-20 20:17 44.31923 1.14401 38148 ft 430 kts 344°
2026-04-20 20:17 44.37879 1.12835 38138 ft 430 kts 344°
2026-04-20 20:18 44.43845 1.11263 38133 ft 430 kts 344°
2026-04-20 20:18 44.49810 1.09688 38133 ft 429 kts 344°
2026-04-20 20:19 44.55770 1.08111 38125 ft 429 kts 344°
2026-04-20 20:19 44.61719 1.06533 38121 ft 429 kts 344°
2026-04-20 20:20 44.67634 1.04960 38120 ft 429 kts 344°
2026-04-20 20:20 44.73552 1.03383 38109 ft 429 kts 344°
2026-04-20 20:21 44.79527 1.01788 38110 ft 428 kts 344°
2026-04-20 20:21 44.85424 1.00210 38101 ft 428 kts 344°
2026-04-20 20:22 44.91360 0.98617 38100 ft 428 kts 344°
2026-04-20 20:22 44.97276 0.96929 38096 ft 427 kts 343°
2026-04-20 20:23 45.03183 0.95360 38094 ft 428 kts 345°
2026-04-20 20:23 45.09105 0.93818 38091 ft 427 kts 344°
2026-04-20 20:24 45.15010 0.92244 38096 ft 427 kts 344°
2026-04-20 20:24 45.20919 0.90652 38103 ft 427 kts 344°
2026-04-20 20:25 45.26873 0.89038 38101 ft 426 kts 344°
2026-04-20 20:25 45.32762 0.87438 38092 ft 426 kts 344°
2026-04-20 20:26 45.38642 0.85835 38092 ft 426 kts 344°
2026-04-20 20:26 45.44551 0.84222 38091 ft 426 kts 344°
2026-04-20 20:27 45.50429 0.82613 38097 ft 425 kts 344°
2026-04-20 20:27 45.56314 0.80999 38090 ft 425 kts 344°
2026-04-20 20:28 45.62225 0.79374 38094 ft 425 kts 344°
2026-04-20 20:28 45.68088 0.77759 38098 ft 425 kts 344°
2026-04-20 20:29 45.73959 0.76139 38092 ft 425 kts 344°
2026-04-20 20:29 45.79864 0.74506 38093 ft 424 kts 344°
2026-04-20 20:30 45.85689 0.72891 38104 ft 424 kts 344°
2026-04-20 20:30 45.91539 0.71266 38095 ft 423 kts 344°
2026-04-20 20:31 45.97397 0.69635 38099 ft 423 kts 344°
2026-04-20 20:31 46.03250 0.68002 38095 ft 423 kts 344°
2026-04-20 20:32 46.09111 0.66363 38086 ft 423 kts 344°
2026-04-20 20:32 46.14919 0.64735 38103 ft 423 kts 344°
2026-04-20 20:33 46.20757 0.63095 38100 ft 423 kts 344°
2026-04-20 20:33 46.26617 0.61446 38103 ft 423 kts 344°
2026-04-20 20:34 46.32467 0.59796 38111 ft 423 kts 344°
2026-04-20 20:34 46.38358 0.58131 38123 ft 423 kts 344°
2026-04-20 20:35 46.44185 0.56479 38111 ft 423 kts 344°
2026-04-20 20:35 46.50039 0.54815 38127 ft 423 kts 344°
2026-04-20 20:36 46.55976 0.53652 38145 ft 432 kts 356°
2026-04-20 20:36 46.62083 0.55049 38138 ft 441 kts
2026-04-20 20:37 46.68094 0.57034 38161 ft 440 kts
2026-04-20 20:37 46.74170 0.59032 38138 ft 440 kts
2026-04-20 20:38 46.80179 0.61015 38146 ft 439 kts
2026-04-20 20:38 46.86228 0.63018 38143 ft 440 kts
2026-04-20 20:39 46.92263 0.65023 38150 ft 439 kts
2026-04-20 20:39 46.98280 0.67026 38147 ft 439 kts
2026-04-20 20:40 47.04281 0.69298 38159 ft 445 kts 16°
2026-04-20 20:40 47.09832 0.73716 38159 ft 454 kts 26°
2026-04-20 20:41 47.15282 0.78582 38159 ft 454 kts 26°
2026-04-20 20:41 47.20727 0.83444 38152 ft 454 kts 26°
2026-04-20 20:42 47.26180 0.88325 38150 ft 454 kts 26°
2026-04-20 20:42 47.31629 0.93214 38168 ft 454 kts 26°
2026-04-20 20:43 47.37081 0.98117 38144 ft 454 kts 26°
2026-04-20 20:43 47.42499 1.03003 38156 ft 454 kts 26°
2026-04-20 20:44 47.47951 1.07931 38152 ft 454 kts 26°
2026-04-20 20:44 47.53484 1.12596 38177 ft 451 kts 22°
2026-04-20 20:45 47.59096 1.16974 38160 ft 451 kts 22°
2026-04-20 20:45 47.64704 1.21365 38154 ft 450 kts 22°
2026-04-20 20:46 47.70285 1.25743 38158 ft 451 kts 22°
2026-04-20 20:46 47.75882 1.30143 38174 ft 450 kts 22°
2026-04-20 20:47 47.81507 1.34578 38180 ft 450 kts 22°
2026-04-20 20:47 47.87093 1.38991 38158 ft 450 kts 22°
2026-04-20 20:48 47.92693 1.43427 38156 ft 450 kts 22°
2026-04-20 20:48 47.98264 1.47851 38176 ft 450 kts 22°
2026-04-20 20:49 48.03875 1.52318 38159 ft 450 kts 22°
2026-04-20 20:49 48.09473 1.56786 38170 ft 450 kts 22°
2026-04-20 20:50 48.15069 1.61262 38185 ft 450 kts 22°
2026-04-20 20:50 48.20628 1.65717 38182 ft 449 kts 22°
2026-04-20 20:51 48.26234 1.70223 38170 ft 449 kts 22°
2026-04-20 20:51 48.31769 1.74685 38173 ft 448 kts 22°
2026-04-20 20:52 48.37322 1.79172 38186 ft 448 kts 22°
2026-04-20 20:52 48.42879 1.83674 38164 ft 448 kts 22°
2026-04-20 20:53 48.48437 1.88188 38172 ft 447 kts 22°
2026-04-20 20:53 48.53984 1.92704 38197 ft 447 kts 23°
2026-04-20 20:54 48.59474 1.97186 38188 ft 446 kts 23°
2026-04-20 20:54 48.64980 2.01691 38195 ft 446 kts 23°
2026-04-20 20:55 48.70450 2.06407 38192 ft 450 kts 30°
2026-04-20 20:55 48.74957 2.13352 38197 ft 467 kts 52°
2026-04-20 20:56 48.77620 2.22505 38210 ft 478 kts 70°
2026-04-20 20:56 48.79371 2.32341 38213 ft 477 kts 71°
2026-04-20 20:57 48.81109 2.42093 38210 ft 476 kts 71°
2026-04-20 20:57 48.82844 2.51844 38198 ft 475 kts 70°
2026-04-20 20:58 48.84573 2.61613 38193 ft 474 kts 71°
2026-04-20 20:58 48.86282 2.71317 38182 ft 474 kts 71°
2026-04-20 20:59 48.87990 2.81075 38171 ft 473 kts 71°
2026-04-20 20:59 48.89693 2.90863 38179 ft 473 kts 71°
2026-04-20 21:00 48.91380 3.00605 38175 ft 473 kts 71°
2026-04-20 21:00 48.93070 3.10421 38194 ft 473 kts 71°
2026-04-20 21:01 48.94750 3.20234 38179 ft 474 kts 71°
2026-04-20 21:01 48.96422 3.30061 38191 ft 474 kts 71°
2026-04-20 21:02 48.98080 3.39859 38195 ft 474 kts 71°
2026-04-20 21:02 48.99736 3.49697 38199 ft 475 kts 72°
2026-04-20 21:03 49.01382 3.59536 38182 ft 475 kts 72°
2026-04-20 21:03 49.03026 3.69416 38200 ft 475 kts 72°
2026-04-20 21:04 49.04649 3.79227 38217 ft 475 kts 72°
2026-04-20 21:04 49.06283 3.89165 38187 ft 475 kts 72°
2026-04-20 21:05 49.07903 3.99074 38178 ft 476 kts 72°
2026-04-20 21:05 49.09506 4.08941 38205 ft 476 kts 72°
2026-04-20 21:06 49.11120 4.18926 38206 ft 477 kts 72°
2026-04-20 21:06 49.12704 4.28794 38205 ft 477 kts 72°
2026-04-20 21:07 49.14549 4.38581 38229 ft 474 kts 64°
2026-04-20 21:07 49.17097 4.47958 38218 ft 474 kts 63°
2026-04-20 21:08 49.19640 4.57349 38198 ft 474 kts 63°
2026-04-20 21:08 49.22181 4.66770 38205 ft 474 kts 64°
2026-04-20 21:09 49.24706 4.76162 38204 ft 473 kts 64°
2026-04-20 21:09 49.27238 4.85615 38198 ft 473 kts 64°
2026-04-20 21:10 49.29738 4.94991 38170 ft 473 kts 64°
2026-04-20 21:10 49.32236 5.04403 38177 ft 473 kts 64°
2026-04-20 21:11 49.34740 5.13875 38189 ft 473 kts 64°
2026-04-20 21:11 49.37226 5.23315 38180 ft 474 kts 64°
2026-04-20 21:12 49.39710 5.32789 38173 ft 474 kts 64°
2026-04-20 21:12 49.42189 5.42281 38172 ft 474 kts 64°
2026-04-20 21:13 49.44658 5.51775 38185 ft 475 kts 64°
2026-04-20 21:13 49.47125 5.61301 38178 ft 475 kts 64°
2026-04-20 21:14 49.49609 5.70818 38177 ft 473 kts 61°
2026-04-20 21:14 49.53262 5.79094 38195 ft 462 kts 40°
2026-04-20 21:15 49.58369 5.85059 38200 ft 453 kts 28°
2026-04-20 21:15 49.63702 5.90363 38202 ft 452 kts 28°
2026-04-20 21:16 49.69026 5.95701 38201 ft 451 kts 28°
2026-04-20 21:16 49.74340 6.01049 38184 ft 451 kts 28°
2026-04-20 21:17 49.79650 6.06408 38183 ft 450 kts 28°
2026-04-20 21:17 49.84950 6.11743 38170 ft 449 kts 26°
2026-04-20 21:18 49.90575 6.16075 38184 ft 445 kts 19°
2026-04-20 21:18 49.96285 6.20079 38178 ft 445 kts 19°
2026-04-20 21:19 50.01924 6.24204 38175 ft 445 kts 20°
2026-04-20 21:20 50.10445 6.30463 38177 ft 445 kts 20°
2026-04-20 21:20 50.16130 6.34646 38174 ft 446 kts 20°
2026-04-20 21:21 50.21795 6.38823 38167 ft 446 kts 21°
2026-04-20 21:21 50.27445 6.43000 38212 ft 446 kts 21°
2026-04-20 21:22 50.33088 6.47183 38221 ft 446 kts 21°
2026-04-20 21:22 50.38585 6.52033 38215 ft 451 kts 29°
2026-04-20 21:23 50.43864 6.57524 38227 ft 450 kts 29°
2026-04-20 21:23 50.49132 6.63009 38223 ft 450 kts 29°
2026-04-20 21:24 50.54391 6.68500 38233 ft 450 kts 30°
2026-04-20 21:24 50.57037 6.71269 38106 ft 450 kts 30°
2026-04-20 21:24 50.59654 6.74010 37903 ft 448 kts 30°
2026-04-20 21:24 50.62312 6.76800 37670 ft 448 kts 30°
2026-04-20 21:25 50.64922 6.79546 37429 ft 448 kts 30°
2026-04-20 21:25 50.67565 6.82189 37078 ft 442 kts 25°
2026-04-20 21:25 50.70380 6.84179 36513 ft 438 kts 15°
2026-04-20 21:25 50.73373 6.85396 35829 ft 436 kts
2026-04-20 21:26 50.76415 6.85804 35103 ft 436 kts 356°
2026-04-20 21:26 50.79472 6.85614 34452 ft 436 kts 354°
2026-04-20 21:26 50.82554 6.85373 33789 ft 437 kts 354°
2026-04-20 21:26 50.85632 6.85136 33225 ft 439 kts 354°
2026-04-20 21:27 50.88719 6.84900 32665 ft 440 kts 355°
2026-04-20 21:27 50.91801 6.84557 32134 ft 440 kts 352°
2026-04-20 21:27 50.94877 6.84029 31599 ft 440 kts 353°
2026-04-20 21:27 50.97937 6.83842 31127 ft 437 kts 360°
2026-04-20 21:28 51.01015 6.84081 30646 ft 434 kts
2026-04-20 21:28 51.04069 6.84354 30144 ft 431 kts
2026-04-20 21:28 51.07094 6.84662 29639 ft 428 kts
2026-04-20 21:28 51.09987 6.85632 29133 ft 426 kts 18°
2026-04-20 21:29 51.12701 6.87593 28590 ft 425 kts 31°
2026-04-20 21:29 51.15150 6.90230 28076 ft 422 kts 35°
2026-04-20 21:29 51.17587 6.92973 27566 ft 419 kts 35°
2026-04-20 21:29 51.19968 6.95653 27052 ft 415 kts 36°
2026-04-20 21:30 51.22344 6.98329 26534 ft 411 kts 36°
2026-04-20 21:30 51.24681 7.00967 26010 ft 408 kts 37°
2026-04-20 21:30 51.27024 7.03621 25496 ft 404 kts 37°
2026-04-20 21:30 51.29313 7.06206 24980 ft 400 kts 37°
2026-04-20 21:31 51.31601 7.08779 24459 ft 396 kts 38°
2026-04-20 21:31 51.33847 7.11304 23947 ft 391 kts 38°
2026-04-20 21:31 51.35961 7.13689 23489 ft 386 kts 38°
2026-04-20 21:31 51.37864 7.15841 23056 ft 381 kts 37°
2026-04-20 21:32 51.40169 7.18452 22514 ft 377 kts 37°
2026-04-20 21:32 51.42312 7.20885 22016 ft 372 kts 37°
2026-04-20 21:32 51.44429 7.23292 21517 ft 368 kts 37°
2026-04-20 21:32 51.46510 7.25662 21014 ft 364 kts 37°
2026-04-20 21:33 51.48583 7.28027 20520 ft 359 kts 37°
2026-04-20 21:33 51.50614 7.30346 20035 ft 355 kts 37°
2026-04-20 21:33 51.52647 7.32671 19543 ft 351 kts 37°
2026-04-20 21:33 51.54630 7.34939 19074 ft 347 kts 37°
2026-04-20 21:34 51.56604 7.37202 18580 ft 344 kts 37°
2026-04-20 21:34 51.58570 7.39457 18087 ft 341 kts 37°
2026-04-20 21:34 51.60476 7.41646 17634 ft 337 kts 37°
2026-04-20 21:34 51.62388 7.43844 17160 ft 334 kts 37°
2026-04-20 21:35 51.64293 7.46037 16691 ft 331 kts 37°
2026-04-20 21:35 51.66157 7.48184 16231 ft 328 kts 37°
2026-04-20 21:35 51.68031 7.50344 15761 ft 325 kts 37°
2026-04-20 21:35 51.69881 7.52480 15312 ft 321 kts 37°
2026-04-20 21:36 51.71685 7.54565 14874 ft 319 kts 37°
2026-04-20 21:36 51.73506 7.56671 14414 ft 316 kts 37°
2026-04-20 21:36 51.75281 7.58726 13970 ft 314 kts 37°
2026-04-20 21:36 51.77056 7.60784 13534 ft 311 kts 37°
2026-04-20 21:37 51.78836 7.62849 13077 ft 309 kts 37°
2026-04-20 21:37 51.80655 7.64701 12628 ft 309 kts 24°
2026-04-20 21:37 51.82764 7.65409 12168 ft 312 kts
2026-04-20 21:37 51.84891 7.64698 11692 ft 317 kts 339°
2026-04-20 21:38 51.86708 7.62628 11223 ft 322 kts 314°
2026-04-20 21:38 51.87868 7.59462 10749 ft 325 kts 290°
2026-04-20 21:38 51.88513 7.56038 10519 ft 312 kts 289°
2026-04-20 21:38 51.89125 7.52733 10359 ft 296 kts 289°
2026-04-20 21:39 51.89708 7.49600 10139 ft 284 kts 289°
2026-04-20 21:39 51.90272 7.46578 9993 ft 271 kts 289°
2026-04-20 21:39 51.90815 7.43673 9802 ft 260 kts 289°
2026-04-20 21:39 51.91333 7.40903 9631 ft 250 kts 289°
2026-04-20 21:40 51.91832 7.38234 9426 ft 243 kts 290°
2026-04-20 21:40 51.92319 7.35629 9139 ft 240 kts 290°
2026-04-20 21:40 51.92804 7.33029 8818 ft 239 kts 289°
2026-04-20 21:40 51.93291 7.30419 8602 ft 237 kts 289°
2026-04-20 21:41 51.93773 7.27830 8335 ft 236 kts 289°
2026-04-20 21:41 51.94249 7.25271 8091 ft 235 kts 289°
2026-04-20 21:41 51.94720 7.22731 7843 ft 235 kts 289°
2026-04-20 21:41 51.95195 7.20164 7576 ft 233 kts 289°
2026-04-20 21:42 51.95654 7.17685 7320 ft 230 kts 289°
2026-04-20 21:42 51.96118 7.15169 7016 ft 229 kts 289°
2026-04-20 21:42 51.96773 7.12875 6797 ft 217 kts 318°
2026-04-20 21:42 51.98021 7.11794 6624 ft 196 kts
2026-04-20 21:43 51.99231 7.12387 6460 ft 178 kts 44°
2026-04-20 21:43 52.00084 7.13697 6372 ft 160 kts 45°
2026-04-20 21:43 52.00896 7.14860 6191 ft 149 kts 44°
2026-04-20 21:43 52.01657 7.15929 6005 ft 140 kts 44°
2026-04-20 21:44 52.02370 7.16969 5770 ft 134 kts 50°
2026-04-20 21:44 52.02887 7.18175 5539 ft 129 kts 65°
2026-04-20 21:44 52.03237 7.19529 5283 ft 128 kts 69°
2026-04-20 21:44 52.03541 7.20885 5024 ft 127 kts 71°
2026-04-20 21:45 52.03818 7.22250 4768 ft 126 kts 71°
2026-04-20 21:45 52.04084 7.23610 4507 ft 125 kts 71°
2026-04-20 21:45 52.04346 7.24953 4254 ft 124 kts 71°
2026-04-20 21:45 52.04611 7.26285 4037 ft 122 kts 71°
2026-04-20 21:46 52.04885 7.27624 4000 ft 126 kts 70°
2026-04-20 21:46 52.05168 7.28977 3987 ft 126 kts 70°
2026-04-20 21:46 52.05452 7.30320 3983 ft 124 kts 70°
2026-04-20 21:46 52.05735 7.31656 3984 ft 124 kts 70°
2026-04-20 21:47 52.06016 7.32990 3985 ft 124 kts 70°
2026-04-20 21:47 52.06295 7.34314 3982 ft 124 kts 70°
2026-04-20 21:47 52.06575 7.35646 3981 ft 123 kts 70°
2026-04-20 21:47 52.06853 7.36968 3968 ft 124 kts 70°
2026-04-20 21:48 52.07135 7.38312 3874 ft 123 kts 70°
2026-04-20 21:48 52.07410 7.39629 3762 ft 122 kts 70°
2026-04-20 21:48 52.07687 7.40944 3611 ft 122 kts 70°
2026-04-20 21:48 52.07964 7.42263 3427 ft 121 kts 70°
2026-04-20 21:49 52.08236 7.43561 3233 ft 121 kts 70°
2026-04-20 21:49 52.08507 7.44867 3038 ft 121 kts 70°
2026-04-20 21:49 52.08776 7.46162 2861 ft 121 kts 70°
2026-04-20 21:49 52.09053 7.47481 2701 ft 122 kts 70°
2026-04-20 21:50 52.09327 7.48795 2549 ft 123 kts 69°
2026-04-20 21:50 52.09605 7.50119 2387 ft 124 kts 69°
2026-04-20 21:50 52.09887 7.51459 2214 ft 124 kts 69°
2026-04-20 21:50 52.10159 7.52766 2031 ft 123 kts 69°
2026-04-20 21:51 52.10441 7.54110 1847 ft 124 kts 69°
2026-04-20 21:51 52.10720 7.55458 1679 ft 125 kts 70°
2026-04-20 21:51 52.10986 7.56825 1517 ft 126 kts 70°
2026-04-20 21:51 52.11270 7.58181 1349 ft 127 kts 68°
2026-04-20 21:52 52.11587 7.59544 1153 ft 128 kts 68°
2026-04-20 21:52 52.11882 7.60929 947 ft 129 kts 70°
2026-04-20 21:52 52.12161 7.62338 784 ft 130 kts 69°
2026-04-20 21:52 52.12466 7.63753 644 ft 132 kts 69°
2026-04-20 21:53 52.12755 7.65127 459 ft 133 kts 71°
2026-04-20 21:53 52.13058 7.66568 289 ft 133 kts 70°
2026-04-20 21:53 52.13361 7.67999 170 ft 129 kts 69°
2026-04-20 21:53 52.13589 7.69076 166 ft 57 kts 71°
2026-04-20 21:54 52.13640 7.69323 166 ft 13 kts 73°
2026-04-20 21:54 52.13694 7.69571 166 ft 30 kts 70°
2026-04-20 21:54 52.13763 7.69913 166 ft 28 kts 83°
2026-04-20 21:54 52.13703 7.70028 166 ft 13 kts 161°
2026-04-20 21:55 52.13620 7.69992 166 ft 12 kts 226°
2026-04-20 21:55 52.13578 7.69859 166 ft 14 kts 251°
2026-04-20 21:55 52.13546 7.69694 166 ft 16 kts 252°
2026-04-20 21:55 52.13507 7.69503 166 ft 18 kts 251°
2026-04-20 21:56 52.13462 7.69297 167 ft 16 kts 246°
2026-04-20 21:56 52.13380 7.69250 167 ft 14 kts 166°
2026-04-20 21:56 52.13279 7.69304 167 ft 14 kts 161°
2026-04-20 21:56 52.13220 7.69279 167 ft 6 kts 238°
2026-04-20 21:57 52.13177 7.69233 167 ft 8 kts 201°
2026-04-20 21:57 52.13132 7.69207 167 ft 2 kts 197°
2026-04-20 21:57 52.13127 7.69205 167 ft 0 kts 197°